Wind_Speed
23 22 21 20 19 19 19 19 18 16 17 18 17 17 16 15 16 16 17 17 17 17 16 16 16 17 17 17 16 16 16 15 14 14 15 15 15 15 15 15 14 13
22 21 20 20 19 19 19 18 17 16 17 18 18 17 16 15 15 15 16 16 16 16 16 16 16 16 16 16 16 15 15 14 14 15 15 15 16 16 15 14 14 13
20 19 18 19 19 19 19 18 17 17 18 18 18 17 16 15 15 15 15 15 15 15 16 15 15 15 15 15 15 15 14 14 15 15 15 16 16 16 14 14 13 13
20 18 18 19 20 19 19 18 18 18 19 19 19 18 16 15 14 14 15 15 15 15 15 15 15 15 15 15 15 14 14 15 15 16 16 17 16 15 14 13 13 13
21 20 20 20 20 20 19 19 19 19 19 20 19 17 16 15 15 15 15 15 15 15 15 15 15 15 15 15 14 14 15 15 16 17 17 17 15 14 13 13 13 13
23 21 21 21 20 20 20 20 20 20 20 20 19 18 17 16 16 16 15 15 15 14 14 15 15 15 15 15 15 15 16 16 17 17 17 16 15 14 13 13 13 13
23 22 22 21 21 21 21 20 21 21 21 20 19 19 18 17 17 16 15 15 14 14 14 15 15 15 15 15 15 16 17 17 17 17 17 16 15 13 13 13 13 13
24 23 23 22 22 22 21 21 21 21 21 21 20 19 19 19 18 17 16 15 15 15 14 15 15 15 15 15 16 16 17 17 17 17 17 15 14 13 13 14 13 12
25 24 23 23 23 22 22 22 21 22 22 22 21 20 20 20 19 18 18 17 16 15 15 15 15 14 14 15 16 16 17 17 17 17 16 14 14 13 13 14 13 12
26 25 24 24 24 23 22 22 22 23 23 22 22 22 21 21 20 20 19 17 16 15 15 14 14 14 14 15 16 17 17 17 17 16 15 14 14 14 14 14 13 12
27 26 26 25 24 24 23 23 23 24 24 24 23 23 23 22 22 21 19 17 16 15 14 14 14 14 15 15 16 17 17 17 16 15 14 14 14 14 14 14 13 12
27 27 27 26 25 24 24 24 25 25 25 25 25 24 24 23 23 21 20 18 17 15 14 14 14 15 15 16 16 17 17 16 15 15 14 14 14 14 14 14 12 11
28 28 27 27 26 24 24 25 26 26 26 26 26 26 25 24 24 23 21 20 17 16 15 14 14 14 15 15 16 17 16 16 15 15 14 15 15 15 15 14 12 10
29 28 28 28 26 25 25 26 27 27 27 27 27 27 26 26 25 25 23 21 20 18 16 15 14 13 14 15 15 16 15 15 15 15 15 15 15 15 15 13 11 10
29 29 30 29 27 26 27 27 28 27 26 27 27 28 27 27 27 27 26 25 24 22 20 17 13 11 12 14 15 15 15 14 14 15 15 15 15 15 14 12 11 10
30 30 30 29 29 29 28 28 28 27 26 27 28 28 28 28 29 29 29 28 25 22 21 17 12 9 11 13 14 15 15 14 14 14 15 15 14 14 13 11 10 9
31 31 30 30 30 30 29 29 28 27 27 27 27 28 28 29 30 29 25 22 20 19 20 18 14 12 11 12 13 15 14 14 14 14 15 14 13 13 12 10 9 8
31 30 30 31 31 30 29 29 27 25 25 25 25 26 28 28 28 26 21 18 18 21 21 19 18 15 11 11 13 14 14 14 14 15 15 14 13 12 10 9 9 10
30 31 31 31 31 29 29 29 27 25 23 23 25 26 25 23 22 21 20 20 20 20 19 18 17 14 11 12 13 14 14 15 15 15 14 13 12 11 10 10 11 13
31 32 32 32 31 29 29 29 28 27 25 23 23 23 21 20 19 20 21 21 18 16 16 15 15 13 11 12 14 14 15 15 15 14 13 12 12 11 10 11 12 12
31 32 32 32 31 30 30 29 29 28 26 24 23 23 23 22 21 21 22 21 17 15 15 14 13 13 13 14 15 15 15 15 15 14 13 12 11 11 12 12 11 11
30 31 31 32 31 31 31 30 29 28 26 25 25 25 24 22 20 20 20 19 17 16 16 15 14 14 14 15 15 15 15 15 14 14 13 12 12 12 12 12 11 10
30 30 31 31 31 32 32 30 29 28 26 27 26 24 22 21 19 19 19 18 18 19 18 17 15 15 15 15 15 15 14 15 15 14 13 13 13 13 12 11 11 10
30 30 31 32 32 33 32 30 29 28 27 26 25 23 21 20 18 18 19 18 20 21 20 18 16 15 15 14 15 15 15 15 15 15 14 14 14 13 13 12 11 9
30 30 31 31 32 32 30 29 29 28 27 26 24 23 21 20 19 19 19 20 22 22 20 19 17 15 15 15 15 15 15 16 16 16 16 16 15 14 13 11 10 9
29 30 30 30 30 29 28 28 28 28 28 27 25 24 23 23 23 21 19 21 23 22 20 19 17 16 15 15 15 16 16 17 17 17 17 16 15 14 13 12 11 10
Wind_Direction
234 229 226 229 230 227 226 227 231 233 231 231 234 240 243 245 245 248 251 254 256 258 260 261 263 266 269 271 273 274 275 276 275 273 273 275 278 279 280 283 288 295
234 228 225 228 228 227 226 227 230 230 229 232 237 242 246 248 249 250 251 253 255 257 258 260 263 266 270 272 273 274 276 275 273 274 275 276 277 277 280 286 291 298
236 231 230 230 228 228 227 227 229 229 231 235 240 244 246 247 248 249 251 252 253 254 256 260 264 268 271 273 275 276 276 275 274 275 275 274 275 278 283 289 294 299
237 236 235 232 228 228 229 228 229 231 233 236 240 243 244 244 246 249 251 252 253 256 259 264 269 271 273 275 277 278 277 276 275 274 273 273 275 280 286 291 295 299
237 239 237 234 230 229 230 229 229 231 234 236 239 241 241 242 246 250 252 254 257 261 265 269 272 273 275 277 278 279 277 276 275 273 272 273 277 283 288 291 294 298
235 237 236 234 231 231 231 230 230 231 233 238 240 239 239 242 248 251 254 258 262 267 270 272 274 275 277 278 278 278 276 274 272 271 271 274 279 284 288 291 293 294
234 236 235 234 233 232 232 232 232 232 234 239 240 238 238 243 248 250 254 261 266 270 272 274 275 276 278 279 278 276 273 271 270 270 272 275 280 285 287 289 290 291
233 235 234 234 233 234 234 234 234 234 236 240 240 237 239 243 247 250 255 262 267 271 273 275 276 277 277 277 276 274 272 271 270 271 273 276 280 283 284 285 287 286
232 233 233 233 233 234 234 235 236 237 239 241 239 238 240 243 246 249 254 262 266 270 272 274 275 275 276 276 275 274 272 271 270 271 274 277 279 281 282 283 283 284
232 233 232 231 232 233 233 235 237 238 241 242 240 238 240 242 245 249 255 262 266 270 272 274 277 278 278 278 276 274 271 269 270 271 274 276 277 279 280 280 282 284
232 232 232 231 232 231 232 235 238 240 242 242 239 239 241 243 246 250 256 262 265 268 271 275 280 282 282 280 277 274 271 270 272 273 274 276 277 278 279 280 281 283
231 231 231 231 231 231 232 234 237 240 242 241 240 241 243 245 248 252 257 260 261 265 271 277 282 283 283 280 276 274 273 274 275 275 275 276 277 279 279 279 281 284
230 230 231 232 232 232 232 233 236 240 242 242 242 243 245 247 250 254 256 256 257 261 266 273 278 281 281 279 277 276 276 277 278 278 277 277 278 279 279 279 281 285
231 231 231 232 233 233 234 235 238 240 243 244 245 246 248 251 253 256 256 255 254 256 260 264 271 278 281 279 279 278 277 279 280 279 279 279 279 279 278 280 283 288
232 231 232 233 233 234 236 237 239 242 245 248 249 250 252 254 256 258 258 255 250 248 248 248 250 266 279 280 281 279 277 277 277 278 279 278 278 279 279 281 286 294
231 230 232 233 234 236 238 239 242 245 248 251 253 255 256 258 260 261 259 256 253 252 252 248 243 258 277 281 278 275 273 273 274 276 275 276 277 278 279 283 289 295
231 230 232 234 236 238 240 243 244 245 248 253 256 258 260 264 268 271 271 268 265 264 265 270 280 285 280 274 270 268 269 271 271 271 271 273 274 274 276 281 285 292
232 231 232 235 238 240 243 246 246 244 248 255 258 261 262 264 270 279 290 294 281 268 265 273 284 286 276 264 262 263 265 266 266 267 268 270 270 269 271 274 280 292
234 233 234 236 239 242 244 247 248 247 251 257 260 263 263 262 268 281 295 298 286 274 269 272 277 279 270 261 259 260 262 263 263 265 267 269 268 266 265 272 284 292
235 235 236 238 241 243 245 248 250 251 253 255 258 262 266 270 279 285 290 291 281 268 264 267 273 276 269 261 260 260 260 260 261 263 266 268 264 260 264 277 285 285
237 237 239 241 243 244 247 249 251 252 254 256 260 265 270 275 280 282 285 285 271 254 253 261 269 274 270 263 261 260 260 260 260 262 264 262 257 259 270 277 277 272
239 241 243 244 245 246 248 250 252 253 256 260 264 268 271 273 275 278 280 274 256 244 248 258 265 270 270 266 261 259 260 258 258 260 258 254 255 265 272 270 264 264
242 244 246 247 247 248 250 251 252 253 256 261 264 267 272 274 274 278 277 263 246 241 244 250 259 266 267 264 260 258 258 256 257 257 254 253 261 269 267 260 257 260
244 246 247 248 248 250 252 253 253 254 256 258 261 264 269 271 271 276 276 261 246 242 243 247 254 258 259 259 258 257 256 257 257 254 252 257 264 264 258 253 254 257
246 247 247 247 249 250 252 253 253 256 256 254 256 262 265 263 261 263 265 259 251 244 243 248 254 256 256 256 256 256 256 256 254 252 254 260 260 254 249 247 249 252
246 247 247 247 248 249 251 253 255 258 258 255 255 260 262 258 256 256 254 254 253 245 240 244 252 257 256 254 254 254 254 253 252 251 254 257 254 248 244 243 243 246
Height
3144 3145 3145 3146 3147 3148 3149 3149 3150 3151 3151 3151 3152 3153 3153 3154 3155 3155 3156 3156 3156 3156 3156 3156 3155 3155 3155 3154 3154 3153 3153 3152 3152 3151 3151 3150 3150 3149 3149 3148 3148 3147
3142 3143 3143 3144 3145 3146 3147 3148 3149 3149 3149 3150 3150 3151 3152 3153 3153 3154 3154 3154 3154 3154 3154 3154 3154 3153 3153 3153 3152 3151 3151 3150 3150 3149 3149 3149 3148 3148 3147 3147 3146 3145
3139 3139 3140 3142 3143 3144 3145 3146 3147 3147 3148 3148 3149 3150 3150 3151 3151 3152 3152 3152 3152 3152 3152 3152 3152 3151 3151 3151 3150 3150 3149 3149 3148 3148 3147 3147 3147 3146 3145 3145 3144 3143
3136 3137 3138 3140 3141 3142 3143 3144 3145 3146 3146 3147 3147 3148 3149 3149 3150 3150 3150 3151 3150 3150 3150 3150 3150 3149 3149 3149 3148 3148 3147 3147 3147 3146 3146 3145 3145 3144 3143 3143 3142 3141
3134 3135 3136 3138 3139 3141 3142 3143 3143 3144 3144 3145 3146 3147 3147 3148 3148 3149 3149 3149 3149 3148 3148 3148 3148 3148 3147 3147 3146 3146 3145 3145 3145 3145 3144 3144 3143 3142 3142 3141 3140 3139
3132 3133 3134 3136 3137 3139 3140 3141 3141 3142 3143 3143 3144 3145 3146 3146 3147 3147 3147 3147 3147 3147 3146 3146 3146 3146 3145 3145 3144 3144 3144 3143 3143 3143 3142 3142 3141 3140 3140 3139 3138 3138
3130 3131 3132 3134 3135 3137 3138 3139 3140 3140 3141 3142 3142 3143 3144 3145 3145 3145 3145 3145 3145 3145 3144 3144 3144 3144 3143 3143 3142 3142 3142 3142 3141 3141 3140 3140 3139 3138 3138 3137 3137 3136
3128 3129 3131 3132 3133 3135 3136 3137 3138 3139 3139 3140 3141 3141 3142 3143 3143 3143 3143 3143 3142 3142 3142 3142 3142 3141 3141 3141 3141 3141 3140 3140 3139 3139 3138 3138 3137 3136 3136 3135 3135 3135
3126 3127 3129 3130 3131 3133 3134 3135 3136 3137 3137 3138 3139 3139 3140 3140 3140 3140 3140 3140 3140 3140 3140 3140 3139 3139 3139 3139 3139 3138 3138 3138 3137 3137 3136 3136 3135 3135 3134 3134 3133 3133
3124 3125 3126 3128 3129 3131 3132 3133 3134 3135 3135 3136 3136 3137 3137 3138 3138 3138 3138 3138 3138 3138 3138 3138 3137 3137 3137 3137 3136 3136 3136 3136 3135 3135 3134 3134 3133 3133 3133 3132 3132 3131
3121 3123 3124 3125 3127 3128 3130 3131 3131 3132 3133 3133 3134 3135 3135 3135 3135 3136 3136 3136 3136 3136 3136 3136 3135 3135 3135 3134 3134 3134 3134 3134 3133 3133 3133 3132 3132 3132 3131 3131 3130 3129
3119 3120 3122 3123 3125 3126 3127 3128 3129 3130 3130 3131 3131 3132 3133 3133 3133 3134 3134 3134 3134 3134 3134 3133 3133 3133 3132 3132 3132 3132 3132 3132 3131 3131 3131 3131 3130 3130 3129 3129 3128 3127
3117 3118 3120 3121 3122 3124 3125 3126 3127 3127 3128 3128 3129 3130 3130 3131 3131 3131 3131 3131 3131 3131 3131 3131 3130 3130 3130 3130 3130 3130 3130 3130 3130 3129 3129 3129 3128 3128 3128 3127 3126 3126
3114 3116 3117 3119 3120 3122 3123 3123 3124 3124 3125 3126 3127 3128 3128 3129 3128 3128 3129 3129 3128 3128 3128 3128 3128 3128 3128 3128 3128 3128 3128 3128 3128 3128 3128 3127 3127 3126 3126 3125 3125 3124
3112 3114 3115 3116 3118 3119 3120 3121 3121 3122 3123 3124 3125 3125 3126 3126 3126 3126 3127 3126 3125 3124 3124 3124 3124 3125 3126 3126 3126 3126 3126 3126 3126 3126 3126 3126 3125 3125 3124 3124 3123 3123
3110 3111 3112 3114 3115 3116 3117 3118 3119 3121 3122 3123 3123 3123 3124 3124 3123 3124 3124 3123 3122 3123 3122 3122 3121 3121 3122 3123 3124 3124 3124 3124 3124 3124 3124 3124 3123 3123 3122 3122 3122 3121
3107 3109 3110 3111 3112 3113 3115 3116 3118 3119 3120 3121 3121 3122 3122 3121 3121 3121 3121 3121 3122 3123 3123 3122 3121 3120 3120 3121 3122 3122 3122 3122 3122 3122 3122 3122 3121 3121 3120 3120 3120 3120
3105 3107 3108 3109 3109 3111 3112 3114 3115 3117 3118 3119 3119 3120 3120 3120 3119 3119 3118 3119 3120 3120 3120 3121 3120 3119 3118 3119 3120 3120 3120 3121 3120 3120 3120 3120 3120 3119 3119 3118 3118 3118
3103 3104 3105 3106 3107 3109 3110 3111 3112 3114 3116 3116 3116 3117 3118 3118 3118 3117 3117 3117 3117 3117 3117 3118 3118 3117 3117 3117 3118 3118 3118 3119 3119 3119 3118 3118 3118 3117 3117 3117 3117 3117
3100 3101 3102 3103 3105 3107 3107 3108 3110 3111 3113 3113 3113 3114 3115 3115 3115 3115 3115 3114 3114 3114 3115 3116 3116 3115 3115 3115 3116 3116 3116 3117 3117 3117 3116 3116 3116 3116 3116 3116 3115 3115
3098 3099 3100 3101 3103 3104 3105 3106 3107 3108 3109 3110 3111 3111 3111 3111 3111 3112 3112 3112 3111 3112 3113 3114 3114 3113 3113 3113 3114 3114 3115 3115 3115 3115 3114 3114 3114 3114 3114 3114 3114 3114
3095 3096 3097 3099 3100 3101 3102 3103 3104 3105 3106 3107 3108 3108 3108 3108 3108 3109 3109 3109 3109 3110 3110 3111 3111 3111 3111 3111 3112 3113 3113 3113 3113 3113 3112 3112 3112 3113 3113 3113 3113 3113
3093 3094 3095 3096 3097 3098 3098 3100 3101 3102 3103 3104 3104 3105 3105 3105 3105 3106 3106 3106 3106 3107 3107 3108 3109 3109 3109 3109 3110 3110 3111 3111 3111 3111 3111 3111 3111 3111 3111 3111 3111 3111
3090 3091 3092 3093 3094 3094 3095 3097 3098 3099 3100 3101 3101 3101 3102 3102 3102 3103 3103 3103 3104 3104 3105 3105 3106 3106 3106 3107 3108 3108 3109 3109 3109 3109 3109 3109 3109 3109 3109 3109 3110 3110
3088 3088 3089 3090 3090 3091 3092 3093 3094 3095 3096 3097 3097 3098 3098 3098 3099 3099 3099 3100 3101 3101 3102 3103 3104 3104 3104 3104 3105 3106 3107 3107 3107 3107 3107 3107 3107 3107 3107 3108 3108 3108
3085 3085 3086 3087 3087 3088 3089 3090 3091 3091 3092 3093 3094 3095 3095 3095 3095 3095 3096 3097 3097 3098 3099 3100 3101 3101 3101 3102 3103 3104 3104 3105 3105 3105 3105 3106 3106 3106 3106 3106 3106 3107